When you browse on this site, cookies collect data to enhance your experience and personalize the content and advertising you see.
Visit our Privacy Policy to learn more. By continuing to use the site, you agree to this use of cookies and data.
EN

Hourly Weather Warwick

Today, 12 July, Sunday

Time Temperature Precipitation Wind Pressure Humidity
00:00 +10°C° 0 mm 1 mps 766 mmHg 78%
01:00 +10°C° 0 mm 1 mps 766 mmHg 80%
02:00 +10°C° 0 mm 1 mps 766 mmHg 81%
03:00 +8°C° 0 mm 0 mps 765 mmHg 82%
04:00 +9°C° 0 mm 0 mps 766 mmHg 80%
05:00 +10°C° 0 mm 0 mps 766 mmHg 78%
06:00 +11°C° 0 mm 0 mps 766 mmHg 76%
07:00 +12°C° 0 mm 0 mps 766 mmHg 72%
08:00 +15°C° 0 mm 1 mps 766 mmHg 68%
09:00 +16°C° 0 mm 1 mps 766 mmHg 64%
10:00 +18°C° 0 mm 1 mps 766 mmHg 60%
11:00 +18°C° 0 mm 2 mps 766 mmHg 57%
12:00 +20°C° 0 mm 2 mps 766 mmHg 53%
13:00 +20°C° 0 mm 2 mps 766 mmHg 52%
14:00 +21°C° 0 mm 2 mps 765 mmHg 51%
15:00 +21°C° 0 mm 2 mps 765 mmHg 51%
16:00 +21°C° 0 mm 2 mps 765 mmHg 55%
17:00 +20°C° 0 mm 2 mps 765 mmHg 60%
18:00 +20°C° 0 mm 2 mps 765 mmHg 65%
19:00 +18°C° 0 mm 2 mps 765 mmHg 68%
20:00 +17°C° 0 mm 2 mps 765 mmHg 72%
21:00 +15°C° 0 mm 2 mps 764 mmHg 75%
22:00 +14°C° 0 mm 2 mps 764 mmHg 79%
23:00 +13°C° 0 mm 2 mps 764 mmHg 82%

Tomorrow, 13 July, Monday

Time Temperature Precipitation Wind Pressure Humidity
00:00 +13°C° 0 mm 2 mps 764 mmHg 86%
01:00 +12°C° 0 mm 2 mps 764 mmHg 85%
02:00 +12°C° 0 mm 2 mps 764 mmHg 85%
03:00 +12°C° 0 mm 2 mps 763 mmHg 84%
04:00 +12°C° 0 mm 2 mps 763 mmHg 82%
05:00 +13°C° 0 mm 2 mps 763 mmHg 79%
06:00 +14°C° 0 mm 2 mps 763 mmHg 76%
07:00 +14°C° 0 mm 3 mps 763 mmHg 75%
08:00 +16°C° 0 mm 3 mps 762 mmHg 74%
09:00 +16°C° 0 mm 3 mps 762 mmHg 73%
10:00 +17°C° 0 mm 4 mps 762 mmHg 74%
11:00 +17°C° 0 mm 4 mps 762 mmHg 75%
12:00 +17°C° 0 mm 4 mps 762 mmHg 76%
13:00 +17°C° 0 mm 5 mps 761 mmHg 75%
14:00 +20°C° 0 mm 5 mps 761 mmHg 75%
15:00 +21°C° 0 mm 5 mps 760 mmHg 74%
16:00 +20°C° 0.2 mm 5 mps 760 mmHg 78%
17:00 +17°C° 0.2 mm 5 mps 760 mmHg 83%
18:00 +16°C° 0.2 mm 5 mps 759 mmHg 87%
19:00 +15°C° 0 mm 4 mps 759 mmHg 90%
20:00 +15°C° 0 mm 4 mps 759 mmHg 92%
21:00 +14°C° 0 mm 3 mps 759 mmHg 95%
22:00 +14°C° 0 mm 3 mps 759 mmHg 95%
23:00 +15°C° 0 mm 2 mps 759 mmHg 95%

Day after tomorrow, 14 July, Tuesday

Time Temperature Precipitation Wind Pressure Humidity
00:00 +15°C° 0 mm 2 mps 758 mmHg 95%
01:00 +15°C° 0 mm 2 mps 758 mmHg 95%
02:00 +14°C° 0 mm 2 mps 758 mmHg 95%
03:00 +14°C° 0 mm 2 mps 758 mmHg 94%
04:00 +14°C° 0 mm 2 mps 758 mmHg 91%
05:00 +14°C° 0 mm 2 mps 758 mmHg 89%
06:00 +14°C° 0 mm 2 mps 758 mmHg 86%
07:00 +14°C° 0 mm 3 mps 758 mmHg 82%
08:00 +14°C° 0 mm 3 mps 758 mmHg 79%
09:00 +16°C° 0 mm 3 mps 758 mmHg 76%
10:00 +15°C° 0 mm 4 mps 758 mmHg 71%
11:00 +17°C° 0 mm 4 mps 758 mmHg 67%
12:00 +18°C° 0 mm 4 mps 758 mmHg 62%
13:00 +18°C° 0 mm 4 mps 758 mmHg 63%
14:00 +18°C° 0 mm 4 mps 758 mmHg 64%
15:00 +18°C° 0 mm 4 mps 757 mmHg 64%
16:00 +17°C° 0 mm 4 mps 757 mmHg 67%
17:00 +17°C° 0 mm 4 mps 757 mmHg 69%
18:00 +17°C° 0 mm 3 mps 757 mmHg 72%
19:00 +16°C° 0 mm 3 mps 757 mmHg 75%
20:00 +14°C° 0 mm 3 mps 758 mmHg 78%
21:00 +12°C° 0 mm 3 mps 758 mmHg 81%
22:00 +12°C° 0 mm 3 mps 757 mmHg 81%
23:00 +12°C° 0 mm 3 mps 757 mmHg 81%

15 July, Wednesday

Time Temperature Precipitation Wind Pressure Humidity
00:00 +12°C° 0 mm 3 mps 757 mmHg 82%
01:00 +13°C° 0 mm 3 mps 757 mmHg 83%
02:00 +13°C° 0 mm 4 mps 757 mmHg 85%
03:00 +13°C° 0 mm 4 mps 756 mmHg 86%
04:00 +13°C° 0 mm 4 mps 756 mmHg 86%
05:00 +14°C° 0 mm 4 mps 756 mmHg 86%
06:00 +14°C° 0 mm 4 mps 756 mmHg 86%
07:00 +14°C° 0 mm 4 mps 756 mmHg 85%
08:00 +15°C° 0 mm 4 mps 756 mmHg 83%
09:00 +15°C° 0 mm 4 mps 756 mmHg 82%
10:00 +17°C° 0 mm 4 mps 756 mmHg 81%
11:00 +17°C° 0 mm 4 mps 756 mmHg 79%
12:00 +18°C° 0 mm 4 mps 756 mmHg 78%
13:00 +18°C° 0 mm 4 mps 756 mmHg 77%
14:00 +19°C° 0 mm 4 mps 756 mmHg 76%
15:00 +20°C° 0 mm 4 mps 757 mmHg 75%
16:00 +19°C° 0 mm 4 mps 757 mmHg 77%
17:00 +19°C° 0 mm 4 mps 757 mmHg 79%
18:00 +18°C° 0 mm 4 mps 757 mmHg 80%
19:00 +17°C° 0 mm 4 mps 757 mmHg 82%
20:00 +15°C° 0 mm 4 mps 758 mmHg 84%
21:00 +15°C° 0 mm 4 mps 758 mmHg 86%
22:00 +14°C° 0 mm 4 mps 758 mmHg 88%
23:00 +13°C° 0 mm 4 mps 758 mmHg 91%

16 July, Thursday

Time Temperature Precipitation Wind Pressure Humidity
00:00 +13°C° 0 mm 3 mps 758 mmHg 94%
01:00 +13°C° 0 mm 3 mps 759 mmHg 92%
02:00 +13°C° 0 mm 4 mps 759 mmHg 91%
03:00 +14°C° 0 mm 4 mps 759 mmHg 89%
04:00 +14°C° 0 mm 4 mps 759 mmHg 89%
05:00 +14°C° 0 mm 4 mps 759 mmHg 89%
06:00 +14°C° 0 mm 4 mps 759 mmHg 88%
07:00 +15°C° 0 mm 4 mps 760 mmHg 84%
08:00 +17°C° 0 mm 4 mps 760 mmHg 80%
09:00 +18°C° 0 mm 4 mps 760 mmHg 76%
10:00 +19°C° 0 mm 4 mps 760 mmHg 75%
11:00 +19°C° 0 mm 4 mps 760 mmHg 74%
12:00 +19°C° 0 mm 4 mps 760 mmHg 73%
13:00 +20°C° 0 mm 4 mps 760 mmHg 72%
14:00 +20°C° 0 mm 4 mps 760 mmHg 71%
15:00 +20°C° 0 mm 3 mps 760 mmHg 71%
16:00 +20°C° 0 mm 3 mps 760 mmHg 72%
17:00 +20°C° 0 mm 3 mps 760 mmHg 73%
18:00 +20°C° 0 mm 3 mps 760 mmHg 75%
19:00 +19°C° 0 mm 2 mps 760 mmHg 77%
20:00 +18°C° 0 mm 2 mps 761 mmHg 79%
21:00 +18°C° 0 mm 1 mps 761 mmHg 81%
22:00 +18°C° 0 mm 1 mps 761 mmHg 82%
23:00 +16°C° 0 mm 1 mps 761 mmHg 83%

17 July, Friday

Time Temperature Precipitation Wind Pressure Humidity
00:00 +16°C° 0 mm 1 mps 761 mmHg 84%
01:00 +15°C° 0 mm 2 mps 761 mmHg 86%
02:00 +15°C° 0 mm 2 mps 761 mmHg 89%
03:00 +14°C° 0 mm 2 mps 761 mmHg 91%
04:00 +15°C° 0 mm 2 mps 761 mmHg 90%
05:00 +15°C° 0 mm 2 mps 761 mmHg 89%
06:00 +16°C° 0 mm 2 mps 761 mmHg 88%
07:00 +17°C° 0 mm 2 mps 761 mmHg 83%
08:00 +19°C° 0 mm 2 mps 761 mmHg 78%
09:00 +20°C° 0 mm 2 mps 761 mmHg 73%
10:00 +21°C° 0.1 mm 2 mps 761 mmHg 72%
11:00 +21°C° 0.1 mm 2 mps 761 mmHg 71%
12:00 +23°C° 0.1 mm 2 mps 761 mmHg 71%
13:00 +22°C° 0.4 mm 3 mps 761 mmHg 71%
14:00 +22°C° 0.4 mm 3 mps 761 mmHg 71%
15:00 +24°C° 0.4 mm 3 mps 761 mmHg 71%
16:00 +22°C° 0.3 mm 3 mps 760 mmHg 74%
17:00 +21°C° 0.3 mm 3 mps 760 mmHg 77%
18:00 +21°C° 0.3 mm 3 mps 760 mmHg 79%
19:00 +19°C° 0 mm 2 mps 760 mmHg 82%
20:00 +18°C° 0 mm 2 mps 761 mmHg 84%
21:00 +16°C° 0 mm 2 mps 761 mmHg 86%
22:00 +16°C° 0 mm 2 mps 761 mmHg 85%
23:00 +15°C° 0 mm 2 mps 761 mmHg 85%
Show more